Location: �quirre
(50.4736°N, 2.2351°E)
Time: 10:37:28
(UTC+00:00)

Cosmos 1626 Rocket - Pass Details

Date: 07 August 2020
Orbit: 603 x 631 km, 82.5° (Epoch: 21 September)

Event Time Altitude Azimuth Distance (km) Brightness Sun altitude
Rises 03:06:57 0° 348° (NNW) 2,880 7.4 -11.3°
Reaches altitude 10° 03:09:11 10° 346° (NNW) 1,968 6.5 -11.0°
Maximum altitude 03:13:31 70° 263° (W) 646 3.5 -10.5°
Drops below altitude 10° 03:17:48 10° 180° (S) 1,945 5.7 -10.0°
Enters shadow 03:19:54 - 178° (S) 2,802 6.6 -9.8°
